Home   Weather   Acworth   Past weeks

Flag for USA Past Weather in Acworth, Georgia, USA — Yesterday and Last 2 Weeks

Now
86 °F

Sunny.


Feels Like: 87 °F
Forecast: 68 / 90 °F
Wind: 3 mph from North

Location: Cobb County-McCollum Field Airport

Current Time: Aug 19, 2017 at 2:56:32 pm

Latest Report: Aug 19, 2017 at 1:51 pm


Visibility: 10 mi

Pressure: 30.03 "Hg

Humidity: 48%

Dew Point: 64 °F

Location of AcworthLocation

Past Weather in Acworth — Graph

°F

Acworth Temperature Yesterday

Maximum temperature yesterday: 89 °F (at 3:51 pm)
Minimum temperature yesterday: 76 °F (at 6:51 am)
Average temperature yesterday: 82 °F

High & Low Weather Summary for the Past Weeks

 TemperatureHumidityPressure
High91 °F (Aug 14, 4:51 pm)100% (Aug 6, 9:01 pm)30.21 "Hg (Aug 6, 9:01 pm)
Low69 °F (Aug 5, 6:56 am)43% (Aug 18, 5:51 pm)29.88 "Hg (Aug 14, 4:51 pm)
Average78 °F80%30.05 "Hg
* Reported Aug 4 12:22 pm — Aug 19 12:51 pm, Acworth. Weather by CustomWeather, © 2017

Note: Actual official high and low records may vary slightly from our data, if they occured in-between our weather recording intervals... More about our weather records

Advertising

Acworth Weather History for the Previous 24 Hours

Scroll right to see more
 ConditionsComfort  
Time TempWeatherWind HumidityBarometerVisibility
12:51 pm
Sat, Aug 19
83 °FSunny.6 mph55%30.06 "Hg10 mi
11:51 am82 °FSunny.5 mph58%30.05 "Hg10 mi
10:51 am79 °FSunny.5 mph67%30.05 "Hg10 mi
9:51 am77 °FSunny.6 mph71%30.04 "Hg10 mi
8:51 am73 °FSunny.3 mph79%30.03 "Hg10 mi
7:51 am70 °FSunny.3 mph84%30.01 "Hg10 mi
6:51 am69 °FPassing clouds.6 mph87%30.02 "Hg10 mi
5:51 am69 °FClear.3 mph87%30.01 "Hg10 mi
4:51 am71 °FClear.3 mph81%30.00 "Hg10 mi
3:51 am72 °FClear.5 mph78%30.00 "Hg10 mi
2:51 am72 °FClear.No wind81%30.01 "Hg10 mi
1:51 am73 °FClear.6 mph79%30.01 "Hg10 mi
12:51 am74 °FClear.5 mph79%30.01 "Hg10 mi
11:51 pm
Fri, Aug 18
77 °FClear.6 mph71%30.00 "Hg10 mi
10:51 pm78 °FClear.8 mph71%30.01 "Hg10 mi
9:51 pm79 °FClear.7 mph67%30.00 "Hg10 mi
8:51 pm82 °FClear.7 mph60%30.00 "Hg10 mi
7:51 pm85 °FSunny.8 mph53%29.99 "Hg10 mi
6:51 pm88 °FPassing clouds.9 mph45%29.97 "Hg10 mi
5:51 pm88 °FSunny.9 mph43%29.96 "Hg10 mi
4:51 pm89 °FPassing clouds.10 mph46%29.96 "Hg10 mi
3:51 pm89 °FPassing clouds.14 mph48%29.97 "Hg10 mi
2:51 pm87 °FPartly sunny.6 mph55%29.99 "Hg10 mi
Weather by CustomWeather, © 2017

See weather overviewHow to use our weather pages